• In Uzbekistan
  • List of Countries
  • For 7 days
  • Water Temperature
  • Satellite Maps
  • Weather Map
  • Weather Widgets
  • user-avatar
    Login

    Hourly Weather Mingachevir

    Today, 22 January, Sunday

    Time Temperature Precipitation Wind Pressure Humidity
    00:00 +1°C° 0 mm 2 mps 759 mmHg 72%
    01:00 +1°C° 0 mm 2 mps 759 mmHg 71%
    02:00 -1°C° 0 mm 2 mps 758 mmHg 70%
    03:00 -1°C° 0 mm 3 mps 758 mmHg 64%
    04:00 -1°C° 0 mm 3 mps 758 mmHg 63%
    05:00 -1°C° 0 mm 3 mps 758 mmHg 62%
    06:00 -2°C° 0 mm 4 mps 757 mmHg 61%
    07:00 -1°C° 0 mm 4 mps 757 mmHg 57%
    08:00 0°C° 0 mm 4 mps 757 mmHg 53%
    09:00 +3°C° 0 mm 4 mps 757 mmHg 48%
    10:00 +4°C° 0 mm 4 mps 757 mmHg 44%
    11:00 +5°C° 0 mm 5 mps 757 mmHg 41%
    12:00 +6°C° 0 mm 5 mps 757 mmHg 37%
    13:00 +7°C° 0 mm 5 mps 757 mmHg 37%
    14:00 +7°C° 0 mm 5 mps 757 mmHg 36%
    15:00 +7°C° 0 mm 4 mps 757 mmHg 37%
    16:00 +7°C° 0 mm 3 mps 758 mmHg 42%
    17:00 +4°C° 0 mm 3 mps 759 mmHg 48%
    18:00 +4°C° 0 mm 2 mps 760 mmHg 53%
    19:00 +3°C° 0 mm 2 mps 761 mmHg 56%
    20:00 +3°C° 0 mm 2 mps 761 mmHg 58%
    21:00 +3°C° 0 mm 2 mps 762 mmHg 60%
    22:00 +2°C° 0 mm 2 mps 762 mmHg 64%
    23:00 +2°C° 0 mm 2 mps 763 mmHg 68%

    Tomorrow, 23 January, Monday

    Time Temperature Precipitation Wind Pressure Humidity
    00:00 +1°C° 0 mm 3 mps 763 mmHg 71%
    01:00 +1°C° 0 mm 2 mps 763 mmHg 76%
    02:00 -1°C° 0 mm 2 mps 763 mmHg 81%
    03:00 +1°C° 0 mm 1 mps 763 mmHg 85%
    04:00 +1°C° 0 mm 1 mps 764 mmHg 86%
    05:00 0°C° 0 mm 1 mps 764 mmHg 88%
    06:00 0°C° 0 mm 1 mps 764 mmHg 89%
    07:00 +1°C° 0 mm 1 mps 764 mmHg 84%
    08:00 +2°C° 0 mm 1 mps 764 mmHg 79%
    09:00 +3°C° 0 mm 1 mps 764 mmHg 73%
    10:00 +3°C° 0 mm 2 mps 763 mmHg 67%
    11:00 +5°C° 0 mm 2 mps 763 mmHg 60%
    12:00 +5°C° 0 mm 3 mps 762 mmHg 54%
    13:00 +6°C° 0 mm 2 mps 762 mmHg 52%
    14:00 +7°C° 0 mm 2 mps 762 mmHg 51%
    15:00 +7°C° 0 mm 2 mps 762 mmHg 49%
    16:00 +6°C° 0 mm 2 mps 762 mmHg 56%
    17:00 +5°C° 0 mm 1 mps 763 mmHg 63%
    18:00 +3°C° 0 mm 1 mps 763 mmHg 69%
    19:00 +3°C° 0 mm 1 mps 763 mmHg 70%
    20:00 +3°C° 0 mm 1 mps 764 mmHg 70%
    21:00 +3°C° 0 mm 1 mps 764 mmHg 71%
    22:00 +2°C° 0 mm 1 mps 764 mmHg 73%
    23:00 +2°C° 0 mm 1 mps 764 mmHg 74%

    Day after tomorrow, 24 January, Tuesday

    Time Temperature Precipitation Wind Pressure Humidity
    00:00 +2°C° 0 mm 1 mps 764 mmHg 76%
    01:00 +2°C° 0 mm 1 mps 764 mmHg 78%
    02:00 +1°C° 0 mm 1 mps 764 mmHg 79%
    03:00 +1°C° 0 mm 1 mps 764 mmHg 81%
    04:00 +1°C° 0 mm 1 mps 764 mmHg 82%
    05:00 -1°C° 0 mm 0 mps 764 mmHg 83%
    06:00 -1°C° 0 mm 0 mps 764 mmHg 85%
    07:00 +1°C° 0 mm 0 mps 764 mmHg 77%
    08:00 +2°C° 0 mm 0 mps 764 mmHg 69%
    09:00 +4°C° 0 mm 0 mps 764 mmHg 61%
    10:00 +5°C° 0 mm 0 mps 763 mmHg 57%
    11:00 +7°C° 0 mm 1 mps 763 mmHg 52%
    12:00 +8°C° 0 mm 1 mps 762 mmHg 48%
    13:00 +9°C° 0 mm 1 mps 761 mmHg 48%
    14:00 +9°C° 0 mm 1 mps 761 mmHg 47%
    15:00 +9°C° 0 mm 1 mps 760 mmHg 46%
    16:00 +7°C° 0 mm 1 mps 760 mmHg 54%
    17:00 +5°C° 0 mm 1 mps 760 mmHg 61%
    18:00 +3°C° 0 mm 1 mps 760 mmHg 68%
    19:00 +2°C° 0 mm 0 mps 760 mmHg 70%
    20:00 +2°C° 0 mm 0 mps 760 mmHg 71%
    21:00 +1°C° 0 mm 0 mps 760 mmHg 72%
    22:00 +2°C° 0 mm 1 mps 759 mmHg 71%
    23:00 +2°C° 0 mm 1 mps 759 mmHg 70%

    25 January, Wednesday

    Time Temperature Precipitation Wind Pressure Humidity
    00:00 +2°C° 0 mm 1 mps 759 mmHg 68%
    01:00 +2°C° 0 mm 1 mps 758 mmHg 65%
    02:00 +1°C° 0 mm 2 mps 758 mmHg 62%
    03:00 +1°C° 0 mm 2 mps 757 mmHg 60%
    04:00 +1°C° 0 mm 2 mps 757 mmHg 57%
    05:00 +1°C° 0 mm 2 mps 756 mmHg 55%
    06:00 +1°C° 0 mm 2 mps 756 mmHg 52%
    07:00 +2°C° 0 mm 2 mps 756 mmHg 48%
    08:00 +3°C° 0 mm 2 mps 755 mmHg 44%
    09:00 +5°C° 0 mm 2 mps 755 mmHg 40%
    10:00 +5°C° 0 mm 3 mps 754 mmHg 37%
    11:00 +8°C° 0 mm 3 mps 753 mmHg 33%
    12:00 +10°C° 0 mm 3 mps 753 mmHg 30%
    13:00 +10°C° 0 mm 3 mps 752 mmHg 29%
    14:00 +10°C° 0 mm 3 mps 752 mmHg 28%
    15:00 +10°C° 0 mm 3 mps 751 mmHg 28%
    16:00 +9°C° 0 mm 3 mps 751 mmHg 31%
    17:00 +7°C° 0 mm 2 mps 752 mmHg 35%
    18:00 +5°C° 0 mm 2 mps 752 mmHg 38%
    19:00 +5°C° 0 mm 2 mps 752 mmHg 39%
    20:00 +5°C° 0 mm 2 mps 752 mmHg 40%
    21:00 +5°C° 0 mm 2 mps 751 mmHg 40%
    22:00 +5°C° 0 mm 2 mps 751 mmHg 41%
    23:00 +4°C° 0 mm 2 mps 751 mmHg 43%

    26 January, Thursday

    Time Temperature Precipitation Wind Pressure Humidity
    00:00 +4°C° 0 mm 2 mps 751 mmHg 44%
    01:00 +4°C° 0 mm 2 mps 750 mmHg 45%
    02:00 +4°C° 0 mm 2 mps 750 mmHg 46%
    03:00 +4°C° 0 mm 2 mps 750 mmHg 48%
    04:00 +4°C° 0 mm 2 mps 750 mmHg 50%
    05:00 +4°C° 0 mm 2 mps 750 mmHg 52%
    06:00 +3°C° 0 mm 3 mps 750 mmHg 53%
    07:00 +4°C° 0 mm 3 mps 750 mmHg 50%
    08:00 +5°C° 0 mm 3 mps 750 mmHg 47%
    09:00 +7°C° 0 mm 3 mps 750 mmHg 44%
    10:00 +8°C° 0 mm 3 mps 750 mmHg 42%
    11:00 +8°C° 0 mm 4 mps 749 mmHg 40%
    12:00 +10°C° 0 mm 4 mps 749 mmHg 38%
    13:00 +10°C° 0 mm 4 mps 749 mmHg 39%
    14:00 +10°C° 0 mm 4 mps 749 mmHg 41%
    15:00 +10°C° 0 mm 4 mps 749 mmHg 43%
    16:00 +8°C° 0 mm 4 mps 749 mmHg 48%
    17:00 +8°C° 0 mm 3 mps 750 mmHg 53%
    18:00 +5°C° 0 mm 3 mps 750 mmHg 58%
    19:00 +5°C° 0.1 mm 3 mps 751 mmHg 61%
    20:00 +5°C° 0.1 mm 3 mps 751 mmHg 63%
    21:00 +5°C° 0.1 mm 2 mps 752 mmHg 66%
    22:00 +5°C° 0.2 mm 2 mps 752 mmHg 68%
    23:00 +5°C° 0.2 mm 2 mps 752 mmHg 70%

    27 January, Friday

    Time Temperature Precipitation Wind Pressure Humidity
    00:00 +5°C° 0.2 mm 2 mps 753 mmHg 72%
    01:00 +4°C° 0.1 mm 2 mps 753 mmHg 72%
    02:00 +4°C° 0.1 mm 2 mps 753 mmHg 72%
    03:00 +4°C° 0.1 mm 2 mps 754 mmHg 72%
    04:00 +3°C° 0.1 mm 2 mps 754 mmHg 72%
    05:00 +3°C° 0.1 mm 2 mps 754 mmHg 72%
    06:00 +4°C° 0.1 mm 1 mps 755 mmHg 73%
    07:00 +3°C° 0.2 mm 2 mps 755 mmHg 71%
    08:00 +3°C° 0.2 mm 2 mps 756 mmHg 69%
    09:00 +3°C° 0.2 mm 2 mps 756 mmHg 67%
    10:00 +4°C° 0.3 mm 2 mps 756 mmHg 68%
    11:00 +4°C° 0.3 mm 2 mps 756 mmHg 70%
    12:00 +4°C° 0.3 mm 2 mps 756 mmHg 71%
    13:00 +4°C° 0.2 mm 2 mps 756 mmHg 72%
    14:00 +4°C° 0.2 mm 2 mps 755 mmHg 72%
    15:00 +5°C° 0.2 mm 1 mps 755 mmHg 73%
    16:00 +5°C° 0.2 mm 1 mps 756 mmHg 77%
    17:00 +4°C° 0.2 mm 1 mps 756 mmHg 81%
    18:00 +4°C° 0.2 mm 1 mps 757 mmHg 85%
    19:00 +3°C° 0.3 mm 1 mps 757 mmHg 86%
    20:00 +3°C° 0.3 mm 1 mps 757 mmHg 87%
    21:00 +2°C° 0.3 mm 2 mps 757 mmHg 88%
    22:00 +2°C° 0.3 mm 2 mps 757 mmHg 88%
    23:00 +2°C° 0.3 mm 2 mps 757 mmHg 88%
    Show more